#timestamp,LO_Frequency,Hit,StdDev 
1618318815.4,286046999.3,N
1618318835.2,286046999.0,N
1618318855.0,286046997.0,N
1618318855.9,286046997.0,N
1618318875.8,286046997.2,N
1618318895.6,286046996.6,N
1618318915.5,286046998.7,N
1618318935.3,286047001.1,N
1618318955.1,286046999.7,N
1618318975.9,286047002.0,N
1618318995.7,286047002.0,N
1618319015.5,286047000.0,N
1618319035.4,286046999.8,N
1618319055.2,286047000.4,N
1618319075.1,286046999.9,N
1618319076.0,286046999.9,N
1618319095.8,286047000.3,N
1618319115.6,286047000.2,N
1618319135.5,286047000.0,N
1618319155.3,286046999.9,N
1618319175.1,286047000.5,N
1618319195.9,286047000.9,N
1618319215.7,286047001.2,N
1618319235.6,286047000.7,N
1618319255.4,286047011.9,Y
1618319275.2,286046998.8,P
1618319295.1,286047000.8,N
1618319296.0,286047000.8,N
1618319315.8,286047002.8,Y
1618319335.7,286047004.0,P
1618319355.5,286047003.3,N
1618319375.3,286047007.2,P
1618319395.2,286047003.1,N
1618319415.0,286047002.7,N
1618319415.9,286047002.7,N
1618319435.8,286047002.0,N
1618319455.6,286047002.2,N
1618319475.4,286047005.2,N
1618319495.3,286047004.5,N
1618319515.1,286047005.4,N
1618319535.9,286047005.9,Y
1618319555.7,286047001.1,P
1618319575.5,286047000.8,N
1618319595.4,286046999.6,N
1618319615.2,286046996.9,N
1618319635.1,286046996.6,N
1618319636.0,286046996.6,N
1618319655.8,286046994.9,N
1618319675.6,286046997.0,N
1618319695.5,286046996.2,N
1618319715.3,286046994.2,N
1618319735.1,286046994.4,N
1618319755.9,286046994.6,N
1618319775.7,286046994.1,N
1618319795.6,286046992.5,N
1618319815.4,286046992.4,N
1618319835.2,286046991.9,N
1618319855.1,286046994.0,N
1618319856.0,286046994.0,N
1618319875.8,286046994.7,N
1618319895.7,286046992.1,N
1618319915.5,286046990.1,Y
1618319935.3,286046997.4,P
1618319955.2,286046996.9,P
1618319975.0,286046995.3,P
1618319975.9,286046995.3,Y
1618319995.7,286047003.0,P
1618320015.6,286047005.2,N
1618320035.4,286047003.3,N
1618320055.3,286047004.2,N
1618320075.1,286047002.6,N
1618320076.0,286047002.6,N
1618320095.8,286047001.9,N
1618320115.7,286047003.1,N
1618320135.5,286047004.7,N
1618320155.4,286047007.6,Y
1618320175.2,286047003.4,P
1618320195.0,286047003.8,P
1618320195.9,286047003.8,P
1618320215.8,286047003.2,Y
1618320235.6,286046999.4,P
1618320255.4,286046997.0,N
1618320275.3,286046997.9,N
1618320295.1,286047000.7,N
1618320315.9,286047000.0,N
1618320335.7,286047000.6,N
1618320355.5,286046999.8,N
1618320375.4,286047004.3,N
1618320395.2,286047005.8,N
1618320415.0,286047004.4,N
1618320415.9,286047004.4,N
1618320435.8,286047004.3,N
1618320455.6,286047006.0,N
1618320475.5,286047003.5,N
1618320495.3,286047003.9,N
1618320515.1,286047003.5,N
1618320535.9,286047003.8,N
1618320555.7,286047003.9,N
1618320575.6,286047001.6,N
1618320595.4,286047001.9,N
1618320615.2,286047001.8,N
1618320635.1,286047004.4,N
1618320636.0,286047004.4,N
1618320655.8,286047006.0,N
1618320675.6,286047004.4,N
1618320695.5,286046999.8,N
1618320715.3,286046999.8,N
1618320735.2,286047002.7,N
1618320755.9,286047001.6,N
1618320775.7,286047004.0,N
1618320795.6,286047004.9,N
1618320815.4,286047007.5,Y
1618320835.2,286047002.8,P
1618320855.1,286046999.4,P
1618320856.0,286046999.4,N
1618320875.8,286046995.4,N
1618320895.7,286046993.4,N
1618320915.5,286046995.9,N
1618320935.3,286046993.5,N
1618320955.2,286046993.5,N
1618320975.0,286046995.1,N
1618320975.9,286046995.1,N
1618320995.8,286046993.4,N
1618321015.6,286046995.9,N
1618321035.4,286046993.6,N
1618321055.3,286046996.3,N
1618321075.1,286046996.2,N
1618321095.8,286046993.3,N
1618321115.7,286046995.4,N
1618321135.5,286046997.6,N
1618321155.4,286046993.7,N
1618321175.2,286046996.1,N
1618321195.0,286046995.7,N
1618321195.9,286046995.7,N
1618321215.8,286046996.3,N
1618321235.6,286046994.1,N
1618321255.4,286046996.3,N
1618321275.3,286046996.1,N
1618321295.1,286046996.9,N
1618321315.9,286046997.0,N
1618321335.7,286046997.3,N
1618321355.5,286046998.8,N
1618321375.4,286047000.1,N
1618321395.2,286046999.9,N
1618321415.0,286046996.6,N
1618321415.9,286046996.6,N
1618321435.8,286046999.6,N
1618321455.6,286046998.4,N
1618321475.5,286046995.2,N
1618321495.3,286046995.1,N
1618321515.1,286046995.2,N
1618321535.9,286046999.3,N
1618321555.7,286047001.0,N
1618321575.5,286047002.8,N
1618321595.4,286046998.2,N
1618321615.2,286046998.9,N
1618321635.1,286046997.5,N
1618321636.0,286046997.5,N
1618321655.8,286046995.5,N
1618321675.6,286046993.7,Y
1618321695.5,286046999.5,P
1618321715.3,286046996.9,N
1618321735.2,286047000.4,N
1618321755.9,286046999.9,N
1618321775.7,286047000.5,N
1618321795.6,286046998.1,N
1618321815.4,286047000.7,N
1618321835.2,286046996.9,N
1618321855.1,286046997.2,N
1618321856.0,286046997.2,N
1618321875.8,286046998.2,N
1618321895.7,286047000.6,N
1618321915.5,286047000.1,N
1618321935.3,286046998.5,N
1618321955.2,286046999.0,N
1618321975.0,286046998.7,N
1618321975.9,286046998.7,N
1618321995.8,286047001.1,N
1618322015.6,286046999.5,N
1618322035.4,286047002.1,N
1618322055.3,286047000.1,N
1618322075.1,286047000.4,N
1618322095.9,286046999.1,N
1618322115.7,286046997.4,N
1618322135.5,286046999.1,N
1618322155.4,286046998.1,N
1618322175.2,286046999.3,N
1618322195.0,286046997.3,N
1618322195.9,286046997.3,N
1618322215.8,286046997.1,N
1618322235.6,286046999.6,N
1618322255.5,286046997.1,N
1618322275.3,286046997.8,N
1618322295.1,286046997.3,N
1618322315.9,286046995.9,N
1618322335.7,286046994.6,Y
1618322355.5,286046995.4,P
1618322375.4,286046997.0,N
1618322395.2,286046998.5,N
